This is the latest recevied weather packets stored in our database for station/object NC4M. If no packets are shown the sender has not sent any weather packets the latest 10 day(s).
| Time | Temp. | Humidity | Pressure | Rain* | Wind** | Luminosity | Snow |
|---|---|---|---|---|---|---|---|
| 1777764160 | 15° C | 36% | 1019.2 hPa | 0 mm | - | 45 W/m² | - |
| 1777761737 | 14.44° C | 38% | 1019.5 hPa | 0 mm | - | 48 W/m² | - |
| 1777761434 | 15° C | 38% | 1019.5 hPa | 0 mm | - | 47 W/m² | - |
| 1777761132 | 15.56° C | 36% | 1019.3 hPa | 0 mm | - | 53 W/m² | - |
| 1777760830 | 15.56° C | 36% | 1019.3 hPa | 0 mm | - | 96 W/m² | - |
| 1777760222 | 16.11° C | 34% | 1019.2 hPa | 0 mm | - | 136 W/m² | - |
| 1777759919 | 16.67° C | 36% | 1019.3 hPa | 0 mm | - | 75 W/m² | - |
| 1777759615 | 16.67° C | 35% | 1019.4 hPa | 0 mm | - | 115 W/m² | - |
| 1777757797 | 16.67° C | 32% | 1019.4 hPa | 0 mm | - | 302 W/m² | - |
| 1777757494 | 15.56° C | 37% | 1019.2 hPa | 0 mm | - | 575 W/m² | - |
| 1777757193 | 15° C | 37% | 1019.3 hPa | 0 mm | - | 532 W/m² | - |
| 1777756586 | 16.11° C | 35% | 1019.3 hPa | 0 mm | - | 82 W/m² | - |
| 1777756284 | 16.67° C | 31% | 1019.4 hPa | 0 mm | - | 92 W/m² | - |
| 1777755981 | 15.56° C | 34% | 1019.2 hPa | 0 mm | - | 590 W/m² | - |
| 1777754466 | 15.56° C | 35% | 1019.5 hPa | 0 mm | - | 151 W/m² | - |
| 1777754163 | 15.56° C | 33% | 1019.5 hPa | 0 mm | - | 141 W/m² | - |
| 1777753860 | 15° C | 35% | 1019.6 hPa | 0 mm | - | 723 W/m² | - |
| 1777753555 | 15.56° C | 36% | 1019.7 hPa | 0 mm | - | 161 W/m² | - |
| 1777753254 | 16.67° C | 32% | 1019.7 hPa | 0 mm | - | 148 W/m² | - |
| 1777752950 | 17.22° C | 31% | 1019.8 hPa | 0 mm | - | 189 W/m² | - |
| 1777752646 | 16.67° C | 37% | 1019.8 hPa | 0 mm | - | 174 W/m² | - |
| 1777752342 | 16.67° C | 35% | 1019.8 hPa | 0 mm | - | 156 W/m² | - |
| 1777752040 | 16.67° C | 33% | 1019.9 hPa | 0 mm | - | 123 W/m² | - |
| 1777751738 | 16.11° C | 35% | 1020.1 hPa | 0 mm | - | 130 W/m² | - |
| 1777750524 | 15.56° C | 39% | 1020.1 hPa | 0 mm | - | 110 W/m² | - |
* Rain latest hour (hover to see other rain measurements)
** Current wind speed in m/s (hover to see current wind gust speed)